Weather in Mondy

Russia / Republic of Buryatia     51°40′32″N   100°59′46″E
temp.,
°C
wind,
m/s
gust,
m/s
humid.,
%
clouds,
%
prec.,
mm/h
press.,
hPa
HPBL,
m
19 april, mon
mon1923:00−6wnw225834 0.0 101715
02:00−6nw115596 0.0 101711
05:00−6nw2259100 0.0 101631
08:00−4ssw23587 0.0 1015210
11:000ssw45457 0.0 1010885
14:00+4sw410315 0.0 10061802
17:00+5wsw6112918 0.0 10021809
20:00+2sw493521 0.0 1002343
20 april, tue
tue2023:00−2wsw1152100 0.0 100612
02:00−2nnw235595 0.0 100747
05:00−5ese3583100 0.0 1008174
08:00−5ese449497 0.1 1009254
11:00−3se4470100 0.0 1007339
14:00−2ese4375100 0.2 1006351
17:00−1ese426448 0.3 1004526
20:00−6e457683 0.3 1008251
21 april, wed
wed2123:00−6ne2393100 2.6 1011246
02:00−8ene3392100 4.0 1013216
05:00−10e2394100 1.4 1015191
08:00−10e3392100 2.3 1017251
11:00−9ese3384100 0.8 1017465
14:00−8ese438299 0.9 1016501
17:00−8ese4383100 0.2 1018523
20:00−11ese3394100 0.4 1022256
22 april, thu
thu2223:00−12ese3395100 0.2 1025207
02:00−14e3397100 0.3 102799
05:00−13e3492100 0.4 1027252
08:00−12ese3491100 0.8 1028288
11:00−11ese4490100 1.1 1027408
14:00−10ese3391100 3.6 1026423
17:00−9ese3387100 0.9 1027413
20:00−10ese2396100 1.1 1031142
23 april, fri
fri2323:00−13ene2297100 0.1 103631
02:00−12ne2295100 0.1 103769
05:00−12ne2393100 0.0 103960
08:00−11ene2389100 0.1 1041260
11:00−8e2276100 0.0 1040609
14:00−6ese3379100 0.1 1038578
17:00−6ese3384100 0.1 1039468
20:00−8ese3496100 0.1 1042162